When you browse on this site, cookies collect data to enhance your experience and personalize the content and advertising you see.
Visit our Privacy Policy to learn more. By continuing to use the site, you agree to this use of cookies and data.
  • En España
  • Lista de países
  • Para 7 días
  • Temperatura del agua
  • El tiempo en el mapa
  • Informadores
  • user-avatar
    Iniciar sesión

    Tiempo cada hora Lota

    Hoy, 19 Febrero, Miércoles

    Tiempo Temperatura Precipitaciones Viento Presión Humedad
    00:00 +14°C° 0 mm 3 mps 757 mmHg 72%
    01:00 +13°C° 0 mm 3 mps 757 mmHg 74%
    02:00 +13°C° 0 mm 3 mps 757 mmHg 74%
    03:00 +13°C° 0 mm 3 mps 757 mmHg 73%
    04:00 +13°C° 0 mm 4 mps 758 mmHg 73%
    05:00 +15°C° 0 mm 4 mps 758 mmHg 67%
    06:00 +17°C° 0 mm 4 mps 758 mmHg 61%
    07:00 +19°C° 0 mm 4 mps 759 mmHg 55%
    08:00 +22°C° 0 mm 4 mps 759 mmHg 42%
    09:00 +26°C° 0 mm 4 mps 759 mmHg 30%
    10:00 +30°C° 0 mm 5 mps 759 mmHg 17%
    11:00 +33°C° 0 mm 5 mps 758 mmHg 15%
    12:00 +34°C° 0 mm 5 mps 758 mmHg 12%
    13:00 +36°C° 0 mm 6 mps 758 mmHg 10%
    14:00 +36°C° 0 mm 5 mps 758 mmHg 11%
    15:00 +35°C° 0 mm 5 mps 757 mmHg 12%
    16:00 +34°C° 0 mm 5 mps 757 mmHg 13%
    17:00 +29°C° 0 mm 5 mps 757 mmHg 19%
    18:00 +25°C° 0 mm 5 mps 758 mmHg 26%
    19:00 +20°C° 0 mm 5 mps 758 mmHg 32%
    20:00 +18°C° 0 mm 4 mps 758 mmHg 36%
    21:00 +17°C° 0 mm 4 mps 758 mmHg 41%
    22:00 +14°C° 0 mm 3 mps 758 mmHg 45%
    23:00 +13°C° 0 mm 3 mps 757 mmHg 45%

    Mañana, 20 Febrero, Jueves

    Tiempo Temperatura Precipitaciones Viento Presión Humedad
    00:00 +13°C° 0 mm 2 mps 757 mmHg 45%
    01:00 +13°C° 0 mm 2 mps 756 mmHg 45%
    02:00 +12°C° 0 mm 2 mps 756 mmHg 46%
    03:00 +12°C° 0 mm 1 mps 756 mmHg 47%
    04:00 +12°C° 0 mm 1 mps 755 mmHg 49%
    05:00 +14°C° 0 mm 1 mps 755 mmHg 45%
    06:00 +16°C° 0 mm 1 mps 755 mmHg 42%
    07:00 +18°C° 0 mm 1 mps 755 mmHg 39%
    08:00 +23°C° 0 mm 1 mps 755 mmHg 31%
    09:00 +27°C° 0 mm 2 mps 755 mmHg 22%
    10:00 +32°C° 0 mm 2 mps 755 mmHg 14%
    11:00 +35°C° 0 mm 2 mps 755 mmHg 12%
    12:00 +38°C° 0 mm 2 mps 754 mmHg 10%
    13:00 +41°C° 0 mm 2 mps 754 mmHg 9%
    14:00 +40°C° 0 mm 2 mps 754 mmHg 11%
    15:00 +38°C° 0 mm 2 mps 754 mmHg 13%
    16:00 +37°C° 0 mm 2 mps 753 mmHg 15%
    17:00 +32°C° 0 mm 2 mps 754 mmHg 24%
    18:00 +27°C° 0 mm 2 mps 754 mmHg 34%
    19:00 +23°C° 0 mm 1 mps 754 mmHg 44%
    20:00 +22°C° 0 mm 1 mps 754 mmHg 47%
    21:00 +20°C° 0 mm 1 mps 755 mmHg 51%
    22:00 +19°C° 0 mm 1 mps 755 mmHg 54%
    23:00 +17°C° 0 mm 2 mps 755 mmHg 56%

    Pasado mañana, 21 Febrero, Viernes

    Tiempo Temperatura Precipitaciones Viento Presión Humedad
    00:00 +17°C° 0 mm 2 mps 755 mmHg 57%
    01:00 +16°C° 0 mm 2 mps 755 mmHg 58%
    08:00 +24°C° 0 mm 2 mps 756 mmHg 31%
    09:00 +28°C° 0 mm 3 mps 756 mmHg 25%
    10:00 +33°C° 0 mm 3 mps 756 mmHg 18%
    11:00 +34°C° 0 mm 3 mps 756 mmHg 20%
    12:00 +34°C° 0 mm 3 mps 756 mmHg 22%
    13:00 +35°C° 0 mm 2 mps 756 mmHg 24%
    14:00 +32°C° 0 mm 2 mps 755 mmHg 28%
    15:00 +30°C° 0 mm 2 mps 755 mmHg 32%
    16:00 +29°C° 0 mm 2 mps 755 mmHg 37%
    17:00 +25°C° 0 mm 2 mps 755 mmHg 49%
    18:00 +22°C° 0 mm 1 mps 755 mmHg 60%
    19:00 +19°C° 0 mm 1 mps 755 mmHg 72%
    20:00 +18°C° 0 mm 1 mps 756 mmHg 75%
    21:00 +16°C° 0 mm 1 mps 756 mmHg 79%
    22:00 +15°C° 0 mm 1 mps 756 mmHg 82%
    23:00 +14°C° 0 mm 1 mps 756 mmHg 82%

    22 Febrero, Sábado

    Tiempo Temperatura Precipitaciones Viento Presión Humedad
    00:00 +14°C° 0 mm 1 mps 756 mmHg 83%
    01:00 +14°C° 0 mm 1 mps 756 mmHg 83%
    02:00 +14°C° 0 mm 1 mps 756 mmHg 85%
    03:00 +13°C° 0 mm 1 mps 757 mmHg 86%
    04:00 +13°C° 0 mm 2 mps 757 mmHg 88%
    05:00 +15°C° 0 mm 1 mps 757 mmHg 82%
    06:00 +16°C° 0 mm 1 mps 757 mmHg 76%
    07:00 +18°C° 0 mm 1 mps 758 mmHg 70%
    08:00 +21°C° 0 mm 2 mps 758 mmHg 58%
    09:00 +26°C° 0 mm 2 mps 758 mmHg 45%
    10:00 +30°C° 0 mm 3 mps 758 mmHg 32%
    11:00 +29°C° 0 mm 3 mps 758 mmHg 35%
    12:00 +29°C° 0 mm 3 mps 757 mmHg 38%
    13:00 +29°C° 0 mm 3 mps 757 mmHg 41%
    14:00 +28°C° 0 mm 3 mps 757 mmHg 41%
    15:00 +27°C° 0 mm 2 mps 757 mmHg 41%
    16:00 +26°C° 0 mm 2 mps 757 mmHg 42%
    17:00 +24°C° 0 mm 2 mps 757 mmHg 55%
    18:00 +21°C° 0 mm 1 mps 757 mmHg 67%
    19:00 +18°C° 0 mm 1 mps 757 mmHg 80%
    20:00 +16°C° 0 mm 1 mps 757 mmHg 85%
    21:00 +15°C° 0 mm 1 mps 757 mmHg 90%
    22:00 +14°C° 0 mm 1 mps 758 mmHg 96%
    23:00 +14°C° 0 mm 1 mps 758 mmHg 95%

    23 Febrero, Domingo

    Tiempo Temperatura Precipitaciones Viento Presión Humedad
    00:00 +14°C° 0 mm 1 mps 757 mmHg 95%
    01:00 +14°C° 0 mm 1 mps 757 mmHg 94%
    02:00 +13°C° 0 mm 1 mps 757 mmHg 94%
    03:00 +12°C° 0 mm 0 mps 757 mmHg 93%
    04:00 +12°C° 0 mm 0 mps 757 mmHg 92%
    05:00 +13°C° 0 mm 0 mps 758 mmHg 87%
    06:00 +16°C° 0 mm 1 mps 758 mmHg 81%
    07:00 +18°C° 0 mm 1 mps 758 mmHg 76%
    08:00 +22°C° 0 mm 1 mps 758 mmHg 62%
    09:00 +25°C° 0 mm 1 mps 758 mmHg 49%
    10:00 +29°C° 0 mm 2 mps 758 mmHg 35%
    11:00 +29°C° 0 mm 3 mps 758 mmHg 34%
    12:00 +30°C° 0 mm 3 mps 758 mmHg 33%
    13:00 +30°C° 0 mm 4 mps 758 mmHg 33%
    14:00 +29°C° 0 mm 4 mps 758 mmHg 32%
    15:00 +29°C° 0 mm 5 mps 758 mmHg 32%
    16:00 +28°C° 0 mm 5 mps 758 mmHg 31%
    17:00 +25°C° 0 mm 5 mps 758 mmHg 41%
    18:00 +21°C° 0 mm 5 mps 758 mmHg 52%
    19:00 +18°C° 0 mm 4 mps 758 mmHg 62%
    20:00 +15°C° 0 mm 4 mps 759 mmHg 69%
    21:00 +13°C° 0 mm 4 mps 759 mmHg 76%
    22:00 +12°C° 0 mm 3 mps 760 mmHg 83%
    23:00 +12°C° 0 mm 3 mps 759 mmHg 84%

    24 Febrero, Lunes

    Tiempo Temperatura Precipitaciones Viento Presión Humedad
    00:00 +12°C° 0 mm 2 mps 759 mmHg 86%
    01:00 +12°C° 0 mm 2 mps 759 mmHg 87%
    02:00 +10°C° 0 mm 2 mps 759 mmHg 89%
    03:00 +10°C° 0 mm 2 mps 759 mmHg 90%
    04:00 +10°C° 0 mm 2 mps 760 mmHg 92%
    05:00 +12°C° 0 mm 2 mps 760 mmHg 87%
    06:00 +13°C° 0 mm 1 mps 760 mmHg 81%
    07:00 +14°C° 0 mm 1 mps 760 mmHg 75%
    08:00 +19°C° 0 mm 1 mps 760 mmHg 63%
    09:00 +21°C° 0 mm 2 mps 760 mmHg 51%
    10:00 +26°C° 0 mm 2 mps 760 mmHg 39%
    11:00 +27°C° 0 mm 2 mps 760 mmHg 35%
    12:00 +28°C° 0 mm 3 mps 760 mmHg 31%
    13:00 +30°C° 0 mm 4 mps 760 mmHg 28%
    14:00 +29°C° 0 mm 4 mps 759 mmHg 30%
    15:00 +28°C° 0 mm 5 mps 759 mmHg 31%
    16:00 +27°C° 0 mm 6 mps 759 mmHg 33%
    17:00 +23°C° 0 mm 6 mps 759 mmHg 44%
    18:00 +20°C° 0 mm 5 mps 759 mmHg 54%
    19:00 +15°C° 0 mm 5 mps 759 mmHg 65%
    20:00 +14°C° 0 mm 5 mps 760 mmHg 71%
    21:00 +13°C° 0 mm 4 mps 760 mmHg 77%
    22:00 +11°C° 0 mm 4 mps 760 mmHg 84%
    23:00 +11°C° 0 mm 3 mps 760 mmHg 86%
    Mostrar más